Osceola, IA

6:08 AM CDT on July 25, 2016 (GMT -0500)
Osceola Municipal

Weather History for KI75 - January, 2013

Change the Weather History Date:

Thursday, January 10, 2013

  Actual Average (KLWD) Record (KLWD)
Temperature  
Mean Temperature 40 °F 24 °F  
Max Temperature 45 °F 33 °F 54 °F (1990)
Min Temperature 34 °F 15 °F -22 °F (1982)
Degree Days  
Heating Degree Days 26 41  
Month to date heating degree days 410  
Since 1 July heating degree days 2839  
Cooling Degree Days 0 0  
Month to date cooling degree days 0  
Year to date cooling degree days 0  
Moisture  
Dew Point 32 °F    
Average Humidity 78    
Maximum Humidity 95    
Minimum Humidity 45    
Precipitation  
Precipitation 0.10 in 0.02 in 0.58 in (2011)
Month to date precipitation 0.21  
Sea Level Pressure  
Sea Level Pressure 30.04 in    
Wind  
Wind Speed 8 mph (SE)    
Max Wind Speed 16 mph    
Max Gust Speed 21 mph    
Visibility 6 miles    
Events Fog , Rain    
T = Trace of Precipitation, MM = Missing Value Source: NWS Daily Summary

Daily Weather History Graph

Daily Weather History Graph

Search for Another Location

Airport or City:

Trip Planner

Search our weather history database for the weather conditions in past years. The results will help you decide how hot, cold, wet, or windy it might be!

Date:

Astronomy

Jan. 10, 2013 Rise Set
Actual Time 7:39 AM CST 5:06 PM CST
Civil Twilight 7:08 AM CST 5:36 PM CST
Nautical Twilight 6:34 AM CST 6:10 PM CST
Astronomical Twilight 6:01 AM CST 6:43 PM CST
Moon 6:19 AM CST (1/10) 4:14 PM CST (1/10)
Length of Visible Light 10h 27m
Length of Day
9h 26m
Waning Crescent, 2% of the Moon is Illuminated
Jan 10
Waning Crescent
Jan 11
New
Jan 18
First Quarter
Jan 26
Full
Feb 3
Last Quarter

Hourly Weather History & Observations

Time (CST) Temp. Windchill Dew Point Humidity Pressure Visibility Wind Dir Wind Speed Gust Speed Precip Events Conditions
12:15 AM 35.1 °F 30.1 °F 24.8 °F 66% 30.37 in 10.0 mi SE 5.8 mph - N/A   Clear
12:35 AM 34.0 °F 29.8 °F 24.3 °F 68% 30.37 in 10.0 mi SSE 4.6 mph - N/A   Clear
12:55 AM 34.3 °F 30.2 °F 23.9 °F 66% 30.37 in 10.0 mi SE 4.6 mph - N/A   Clear
2:15 AM 34.7 °F 28.8 °F 25.5 °F 69% 30.36 in 10.0 mi SSE 6.9 mph - N/A   Clear
2:35 AM 35.1 °F 29.3 °F 26.1 °F 70% 30.36 in 10.0 mi SSE 6.9 mph - N/A   Clear
2:55 AM 34.7 °F 28.1 °F 26.6 °F 72% 30.35 in 10.0 mi SSE 8.1 mph - N/A   Clear
3:15 AM 35.6 °F 28.6 °F 27.1 °F 71% 30.35 in 10.0 mi SSE 9.2 mph - N/A   Clear
3:35 AM 34.7 °F 28.1 °F 27.5 °F 75% 30.33 in 10.0 mi SE 8.1 mph - N/A   Clear
3:55 AM 34.7 °F 29.6 °F 27.3 °F 74% 30.33 in 10.0 mi SE 5.8 mph - N/A   Clear
4:15 AM 34.7 °F 28.1 °F 27.5 °F 75% 30.31 in 10.0 mi SE 8.1 mph - N/A   Clear
4:35 AM 34.2 °F 28.2 °F 27.5 °F 77% 30.30 in 10.0 mi SSE 6.9 mph - N/A   Clear
4:55 AM 34.3 °F 29.2 °F 27.5 °F 76% 30.30 in 10.0 mi SSE 5.8 mph - N/A   Clear
5:15 AM 34.7 °F 28.8 °F 27.5 °F 75% 30.29 in 10.0 mi SE 6.9 mph - N/A   Clear
5:35 AM 34.7 °F 27.5 °F 27.9 °F 76% 30.28 in 10.0 mi SE 9.2 mph - N/A   Clear
5:55 AM 35.2 °F 28.8 °F 27.5 °F 73% 30.27 in 10.0 mi SE 8.1 mph - N/A   Clear
6:15 AM 36.3 °F 28.9 °F 27.5 °F 70% 30.26 in 10.0 mi SE 10.4 mph - N/A   Clear
6:35 AM 36.7 °F 29.9 °F 27.1 °F 68% 30.25 in 10.0 mi ESE 9.2 mph - N/A   Clear
6:55 AM 37.0 °F 30.4 °F 26.6 °F 66% 30.24 in 10.0 mi ESE 9.2 mph - N/A   Clear
7:15 AM 37.4 °F 30.3 °F 26.2 °F 64% 30.23 in 10.0 mi ESE 10.4 mph - N/A   Clear
7:35 AM 37.9 °F 30.9 °F 25.7 °F 61% 30.22 in 10.0 mi ESE 10.4 mph - N/A   Clear
7:55 AM 38.8 °F 31.6 °F 25.2 °F 58% 30.21 in 10.0 mi ESE 11.5 mph - N/A   Clear
8:15 AM 39.9 °F 33.9 °F 24.8 °F 55% 30.21 in 10.0 mi ESE 9.2 mph - N/A   Mostly Cloudy
8:35 AM 40.1 °F 33.6 °F 24.6 °F 54% 30.20 in 10.0 mi ESE 10.4 mph - N/A   Overcast
8:55 AM 40.5 °F 34.1 °F 24.8 °F 54% 30.19 in 10.0 mi ESE 10.4 mph - N/A   Overcast
9:15 AM 41.0 °F 34.7 °F 24.4 °F 52% 30.18 in 10.0 mi ESE 10.4 mph - N/A   Overcast
9:35 AM 41.5 °F 35.9 °F 24.4 °F 51% 30.17 in 10.0 mi ESE 9.2 mph - N/A   Scattered Clouds
9:55 AM 42.6 °F 35.9 °F 23.7 °F 47% 30.15 in 10.0 mi ESE 12.7 mph - N/A   Clear
10:15 AM 42.8 °F 36.2 °F 23.5 °F 47% 30.13 in 10.0 mi ESE 12.7 mph - N/A   Scattered Clouds
10:35 AM 43.3 °F 36.8 °F 23.7 °F 46% 30.12 in 10.0 mi ESE 12.7 mph 17.3 mph N/A   Mostly Cloudy
10:55 AM 43.5 °F 37.1 °F 23.9 °F 46% 30.10 in 10.0 mi ESE 12.7 mph 18.4 mph N/A   Overcast
11:15 AM 43.9 °F 38.3 °F 24.3 °F 46% 30.07 in 10.0 mi ESE 10.4 mph - N/A   Overcast
11:35 AM 44.8 °F 38.3 °F 24.4 °F 45% 30.04 in 10.0 mi ESE 13.8 mph 19.6 mph N/A   Overcast
11:55 AM 45.7 °F 38.8 °F 25.3 °F 45% 30.01 in 10.0 mi ESE 16.1 mph 20.7 mph N/A   Overcast
12:15 PM 45.9 °F 39.4 °F 27.5 °F 49% 29.99 in 10.0 mi SE 15.0 mph - N/A   Overcast
12:35 PM 41.5 °F 34.2 °F 36.7 °F 83% 29.99 in 1.8 mi SE 13.8 mph - N/A Rain Light Rain
12:55 PM 39.6 °F 33.5 °F 37.0 °F 91% 29.98 in 2.5 mi SE 9.2 mph - 0.01 in Rain Light Rain
1:15 PM 39.4 °F 33.2 °F 37.4 °F 93% 29.95 in 2.5 mi ESE 9.2 mph - 0.01 in Rain Light Rain
1:35 PM 39.7 °F 31.5 °F 37.8 °F 93% 29.94 in 3.0 mi ESE 15.0 mph - 0.01 in Rain Light Rain
1:55 PM 39.6 °F 33.5 °F 37.6 °F 93% 29.93 in 4.0 mi ESE 9.2 mph 18.4 mph 0.02 in   Overcast
2:15 PM 39.4 °F 32.7 °F 37.4 °F 93% 29.93 in 4.0 mi ESE 10.4 mph - N/A Rain Light Rain
2:35 PM 39.2 °F 32.5 °F 37.4 °F 93% 29.92 in 1.8 mi ESE 10.4 mph - 0.01 in Rain Light Rain
2:55 PM 39.2 °F 33.0 °F 37.4 °F 93% 29.91 in 4.0 mi ESE 9.2 mph - 0.01 in Rain Light Rain
3:15 PM 39.2 °F 32.5 °F 37.4 °F 93% 29.91 in 5.0 mi SE 10.4 mph - 0.01 in   Overcast
3:35 PM 39.2 °F 32.5 °F 37.4 °F 93% 29.90 in 1.5 mi SE 10.4 mph - 0.02 in   Light Drizzle
3:55 PM 39.2 °F 34.2 °F 37.4 °F 93% 29.90 in 2.0 mi SE 6.9 mph - 0.02 in   Drizzle
4:15 PM 39.2 °F 34.2 °F 37.4 °F 93% 29.90 in 2.5 mi ESE 6.9 mph - 0.01 in Rain Rain
4:35 PM 38.8 °F 34.6 °F 37.4 °F 95% 29.89 in 3.0 mi ESE 5.8 mph - 0.02 in   Drizzle
4:55 PM 38.8 °F 34.6 °F 37.4 °F 95% 29.89 in 3.0 mi ESE 5.8 mph - 0.02 in   Light Drizzle
5:15 PM 38.7 °F 32.9 °F 37.2 °F 95% 29.89 in 3.0 mi ESE 8.1 mph - 0.01 in Rain Light Rain
5:35 PM 38.8 °F 34.6 °F 37.4 °F 95% 29.88 in 3.0 mi SE 5.8 mph - 0.01 in Rain Light Rain
5:55 PM 38.7 °F 34.3 °F 37.4 °F 95% 29.86 in 4.0 mi ESE 5.8 mph - 0.02 in   Overcast
6:15 PM 38.7 °F 34.3 °F 37.4 °F 95% 29.86 in 5.0 mi ESE 5.8 mph - N/A   Light Drizzle
6:35 PM 38.8 °F 33.8 °F 37.4 °F 95% 29.86 in 5.0 mi ESE 6.9 mph - N/A   Overcast
6:55 PM 38.8 °F 33.2 °F 37.4 °F 95% 29.86 in 3.0 mi ESE 8.1 mph - N/A   Overcast
7:15 PM 39.0 °F 32.8 °F 37.4 °F 94% 29.83 in 3.0 mi SE 9.2 mph - N/A   Overcast
7:35 PM 39.0 °F 32.8 °F 37.6 °F 95% 29.81 in 3.0 mi ESE 9.2 mph - N/A   Overcast
7:55 PM 39.2 °F 33.0 °F 37.6 °F 94% 29.79 in 1.8 mi ESE 9.2 mph - N/A   Overcast
8:15 PM 39.2 °F 32.5 °F 37.8 °F 95% 29.78 in 1.0 mi SE 10.4 mph - N/A   Overcast
8:35 PM 39.4 °F 33.2 °F 37.9 °F 95% 29.77 in 1.2 mi SE 9.2 mph - N/A   Overcast
8:55 PM 39.4 °F 33.2 °F 37.9 °F 95% 29.77 in 1.0 mi SE 9.2 mph - N/A   Overcast
9:15 PM 39.9 °F 33.4 °F 38.5 °F 95% 29.77 in 0.5 mi SE 10.4 mph - N/A Fog Fog
9:35 PM 40.3 °F 34.9 °F 38.8 °F 95% 29.76 in 0.5 mi SSE 8.1 mph - N/A Fog Fog
9:55 PM 40.1 °F 33.6 °F 38.5 °F 94% 29.75 in 0.2 mi SE 10.4 mph - N/A Fog Fog
10:15 PM 40.1 °F 34.1 °F 38.5 °F 94% 29.73 in 0.5 mi SE 9.2 mph - N/A Fog Fog
10:35 PM 40.1 °F 33.6 °F 38.7 °F 95% 29.71 in 0.5 mi SE 10.4 mph - N/A Fog Fog
11:15 PM 41.0 °F 36.4 °F 39.4 °F 94% 29.70 in 0.5 mi SE 6.9 mph - N/A Fog Fog
11:35 PM 40.6 °F 38.6 °F 39.2 °F 95% 29.72 in 0.5 mi South 3.5 mph - N/A Fog Fog
11:55 PM 41.0 °F 38.0 °F 39.4 °F 94% 29.72 in 0.2 mi South 4.6 mph - N/A   Light Drizzle